Location: Tamazert
(32.6352°N, 5.2072°W)
Time: 23:49:29
(UTC+00:00)

Vanguard 1 Rocket - Pass Details

Date: 11 October 2022
Orbit: 650 x 4225 km, 34.3° (Epoch: 05 December)

Event Time Altitude Azimuth Distance (km) Brightness Sun altitude
Rises 23:43:19 0° 289° (WNW) 7,053 12.1 -64.1°
Reaches altitude 10° 23:49:01 10° 285° (WNW) 5,450 11.4 -64.3°
Enters shadow 23:51:28 15° 282° (WNW) 4,734 11.0 -64.4°
